Torna al catalogo

RCM 1

AttivoScienzaSSO
NORAD 44322·PAYLOAD·🇨🇦 Canada

Lanciato Jun 12, 2019 da Vandenberg Space Force Base

Loading…

Prossimi Passaggi (prossime 24 ore)

TLE

AggiornatoSource: Space-Track

Epoca: Sep 14, 2026, 15:27 UTC

1 44322U 19033A   26257.64427723  .00000769  00000-0  80200-4 0  9994
2 44322  97.7602 263.8268 0001498  90.0776 336.7251 14.92591982395424

Traccia RCM 1 in tempo reale con AllMySat

Download on the App Store